Regional Weather Roundup
Issued by NWS Kansas City/Pleasant Hill, MO

Home | Current Version | Previous Version | Text Only | Print | Product List | Glossary On
Versions: 1 2 3 4 5 6 7 8 9 10 11 12 13 14 15 16 17 18 19 20 21 22 23 24 25 26 27 28 29 30 31 32 33 34 35 36 37 38 39 40 41 42 43 44 45 46 47 48 49 50
485
ASUS43 KEAX 261810
RWREAX

WEATHER ROUNDUP FOR EASTERN KANSAS AND NORTHWEST MISSOURI
NATIONAL WEATHER SERVICE KANSAS CITY/PLEASANT HILL MO
100 PM CDT WED JUL 26 2017

KSZ040-057-103>105-MOZ028-029-037-043-261900-
...KANSAS CITY METROPOLITAN AREA...

CITY           SKY/WX    TMP DP  RH WIND       PRES   REMARKS
K.C. INTL      CLOUDY    79  75  87 S13       30.00F
6HR MIN TEMP:  77; 6HR MAX TEMP:  80; 6HR PCP:  0.05;

K.C. DOWNTOWN  LGT RAIN  81  78  91 S10       30.01F
6HR MIN TEMP:  80; 6HR MAX TEMP:  83; 6HR PCP:  0.05;

LEES SUMMIT    LGT RAIN  81  76  84 SW6       30.05F
6HR MIN TEMP:  79; 6HR MAX TEMP:  81; 6HR PCP: TRACE;

OLATHE - IXD   LGT RAIN  79  75  87 SE6       30.04F FOG
6HR MIN TEMP:  77; 6HR MAX TEMP:  80; 6HR PCP:  0.01;

OLATHE - OJC   LGT RAIN  77  77 100 S5        30.04F
6HR MIN TEMP:  76; 6HR MAX TEMP:  79; 6HR PCP:  0.01;

LAWRENCE       CLOUDY    77  76  96 SE9       29.99F

$$

MOZ001>008-011>017-020>025-030>033-038>040-044>046-053-054-261900-
...NORTHERN AND CENTRAL MISSOURI...

CITY           SKY/WX    TMP DP  RH WIND       PRES   REMARKS
ST. JOSEPH     CLOUDY    80  76  87 S8        29.99R
6HR MIN TEMP:  76; 6HR MAX TEMP:  81; 6HR PCP:  0.17;

MOSBY          CLOUDY    81  73  78 S5        30.02S
WARRENSBURG    CLOUDY    82  72  69 SW7       30.04F
WHITEMAN AFB   CLOUDY    85  76  75 W10       30.04S HX  95
6HR MIN TEMP:  76; 6HR MAX TEMP:  85;

CLINTON        CLOUDY    86  75  70 S3        30.05S HX  95
SEDALIA        CLOUDY    87  78  74 SW7       30.06F HX 100
6HR MIN TEMP:  76; 6HR MAX TEMP:  87;

WARSAW         NOT AVBL
CHILLICOTHE      N/A     81  77  88 CALM      30.03S
6HR MIN TEMP:  75; 6HR MAX TEMP:  82;

KIRKSVILLE     CLOUDY    84  75  74 W7        30.04S HX  92
6HR MIN TEMP:  73; 6HR MAX TEMP:  85;


$$

MOZ041-047>049-056>058-063>065-088>090-097-261900-
...EASTERN AND SOUTHERN MISSOURI...

CITY           SKY/WX    TMP DP  RH WIND       PRES   REMARKS
ST. LOUIS INTL CLOUDY    95  74  50 NW9       30.04F HX 105
6HR MIN TEMP:  78; 6HR MAX TEMP:  97;

SPIRIT OF STL  CLOUDY    93  77  59 W9        30.03S HX 107
COLUMBIA       MOSUNNY   91  74  57 SW7       30.05F HX 100
JEFFERSON CITY CLOUDY    91  74  57 CALM      30.02F HX 100
ROLLA          CLOUDY    89  74  60 S7        30.09F HX  98
OSAGE BEACH    CLOUDY    94  71  47 SW9G20    30.05F HX 101
SPRINGFIELD    MOSUNNY   92  71  50 SW10      30.08F HX  98
BRANSON        CLOUDY    91  70  49 SW7       30.11F HX  97
JOPLIN         PTSUNNY   96  74  48 S12       30.05F HX 107
WEST PLAINS    CLOUDY    91  70  49 SW7G18    30.11F HX  96

$$

IAZ060-094-KSZ022-034>040-054-083-096-NEZ052-066-093-261900-
...KANSAS...SOUTHEAST NEBRASKA AND IOWA...

CITY           SKY/WX    TMP DP  RH WIND       PRES   REMARKS
TOPEKA         LGT RAIN  78  76  93 SE7       29.98F
6HR MIN TEMP:  75; 6HR MAX TEMP:  80; 6HR PCP:  0.34;

MANHATTAN      LGT RAIN  78  75  90 E3        29.97S FOG
EMPORIA        LGT RAIN  79  75  87 E12       30.00F
CHANUTE        CLOUDY    88  73  61 S13       30.02F HX  95
WICHITA        CLOUDY    96  68  39 S16G25    29.94F HX 101
OMAHA          CLOUDY    77  71  82 S7        29.98R
LINCOLN        CLOUDY    81  75  82 S5        29.97S
FALLS CITY     CLOUDY    78  74  87 S9        29.98R
LAMONI         CLOUDY    79  71  76 S3        30.02F
DES MOINES     CLOUDY    79  73  82 E5        30.00S

$$





USA.gov is the U.S. government's official web portal to all federal, state and local government web resources and services.